Retour au catalogue

STARLINK-36411

ActifCommunicationsSSO
NORAD 67608·PAYLOAD·🇺🇸 United States

Lancé Jan 29, 2026 depuis Vandenberg Space Force Base

Loading…

Prochains Passages (prochaines 24 heures)

TLE

FraisSource: CelesTrak SupGP

Époque: Sep 14, 2026, 20:56 UTC

1 67608C 26018V   26257.87270833 -.00031362  00000+0 -97359-3 0  2573
2 67608  97.2852 321.3420 0000575 103.8779 245.0512 15.33454919    13

Suivez STARLINK-36411 en temps réel avec AllMySat

Download on the App Store